Sabadell, Spain

9:58 PM CET on February 14, 2016 (GMT +0100)
Sabadell

Weather History for LELL - November, 2012

Change the Weather History Date:

Saturday, November 10, 2012

  Actual Average (LEBL) Record (LEBL)
Temperature  
Mean Temperature 62 °F -  
Max Temperature 68 °F 62 °F 73 °F (1998)
Min Temperature 55 °F 49 °F 35 °F (2001)
Degree Days  
Heating Degree Days 4    
Growing Degree Days 12 (Base 50)    
Moisture  
Dew Point 56 °F    
Average Humidity 78    
Maximum Humidity 100    
Minimum Humidity 60    
Precipitation  
Precipitation 0.00 in - - ()
Sea Level Pressure  
Sea Level Pressure 29.75 in    
Wind  
Wind Speed 4 mph ()    
Max Wind Speed 10 mph    
Max Gust Speed -    
Visibility 6.2 miles    
Events      
Averages and records for this station are not official NWS values.
T = Trace of Precipitation, MM = Missing Value Source: Averaged Metar Reports

Daily Weather History Graph

Daily Weather History Graph

Search for Another Location

Airport or City:

Trip Planner

Search our weather history database for the weather conditions in past years. The results will help you decide how hot, cold, wet, or windy it might be!

Date:

Astronomy

Nov. 10, 2012 Rise Set
Actual Time 7:34 AM CET 5:36 PM CET
Civil Twilight 7:05 AM CET 6:05 PM CET
Nautical Twilight 6:31 AM CET 6:38 PM CET
Astronomical Twilight 5:59 AM CET 7:11 PM CET
Moon 3:19 AM CET (11/10) 3:16 PM CET (11/10)
Length of Visible Light 11h 00m
Length of Day
10h 01m
Waning Crescent, 16% of the Moon is Illuminated
Nov 10
Waning Crescent
Nov 13
New
Nov 20
First Quarter
Nov 28
Full
Dec 6
Last Quarter

Hourly Weather History & Observations

Time (CET) Temp. Dew Point Humidity Pressure Visibility Wind Dir Wind Speed Gust Speed Precip Events Conditions
8:00 AM 55.4 °F 55.4 °F 100% 29.80 in 6.2 mi Calm Calm - N/A   Scattered Clouds
8:30 AM 55.4 °F 53.6 °F 94% 29.80 in 6.2 mi Calm Calm - N/A   Scattered Clouds
9:00 AM 57.2 °F 55.4 °F 94% 29.80 in 6.2 mi Variable 1.2 mph - N/A   Scattered Clouds
9:30 AM 59.0 °F 57.2 °F 94% 29.80 in 6.2 mi West 3.5 mph - N/A   Scattered Clouds
10:00 AM 60.8 °F 57.2 °F 88% 29.80 in 6.2 mi West 2.3 mph - N/A   Scattered Clouds
10:30 AM 62.6 °F 57.2 °F 82% 29.80 in 6.2 mi West 4.6 mph - N/A   Scattered Clouds
11:00 AM 62.6 °F 59.0 °F 88% 29.77 in 6.2 mi WSW 4.6 mph - N/A   Scattered Clouds
11:30 AM 62.6 °F 57.2 °F 82% 29.77 in 6.2 mi WSW 4.6 mph - N/A   Scattered Clouds
12:00 PM 64.4 °F 59.0 °F 83% 29.77 in 6.2 mi SW 6.9 mph - N/A   Scattered Clouds
12:30 PM 64.4 °F 59.0 °F 83% 29.74 in 6.2 mi WSW 8.1 mph - N/A   Partly Cloudy
1:00 PM 64.4 °F 57.2 °F 77% 29.74 in 6.2 mi SW 6.9 mph - N/A   Partly Cloudy
1:30 PM 66.2 °F 57.2 °F 73% 29.74 in 6.2 mi SW 6.9 mph - N/A   Partly Cloudy
2:00 PM 66.2 °F 57.2 °F 73% 29.71 in 6.2 mi WSW 4.6 mph - N/A   Partly Cloudy
2:30 PM 66.2 °F 55.4 °F 68% 29.71 in 6.2 mi WSW 4.6 mph - N/A   Partly Cloudy
3:00 PM 66.2 °F 55.4 °F 68% 29.71 in 6.2 mi West 9.2 mph - N/A   Partly Cloudy
3:30 PM 66.2 °F 53.6 °F 64% 29.71 in 6.2 mi WSW 6.9 mph - N/A   Partly Cloudy
4:00 PM 68.0 °F 53.6 °F 60% 29.71 in 6.2 mi West 6.9 mph - N/A   Partly Cloudy
4:30 PM 66.2 °F 51.8 °F 60% 29.71 in 6.2 mi WSW 10.4 mph - N/A   Partly Cloudy
5:00 PM 64.4 °F 51.8 °F 64% 29.68 in 6.2 mi WSW 6.9 mph - N/A   Partly Cloudy
5:30 PM 62.6 °F 51.8 °F 68% 29.71 in 6.2 mi WSW 8.1 mph - N/A   Partly Cloudy